Salem, OR

3:40 AM PDT on April 25, 2017 (GMT -0700)
McNary

Weather History for KSLE - May, 2013

Change the Weather History Date:

Thursday, May 16, 2013

  Actual Average Record
Temperature  
Mean Temperature 57 °F 56 °F  
Max Temperature 61 °F 68 °F 99 °F (2008)
Min Temperature 53 °F 45 °F 32 °F (1980)
Degree Days  
Heating Degree Days 8 9  
Month to date heating degree days 65 167  
Since 1 July heating degree days 4054 4410  
Cooling Degree Days 0 0  
Month to date cooling degree days 10 0  
Year to date cooling degree days 10 0  
Growing Degree Days 6 (Base 50)    
Moisture  
Dew Point 53 °F    
Average Humidity 86    
Maximum Humidity 100    
Minimum Humidity 72    
Precipitation  
Precipitation 0.18 in 0.07 in 1.36 in (1972)
Month to date precipitation 0.34 1.14  
Year to date precipitation 7.99 18.46  
Snow  
Snow 0.00 in - - ()
Month to date snowfall 0.0  
Snow Depth 0.00 in    
Sea Level Pressure  
Sea Level Pressure 29.97 in    
Wind  
Wind Speed 6 mph (South)    
Max Wind Speed 12 mph    
Max Gust Speed 15 mph    
Visibility 8 miles    
Events Rain    
T = Trace of Precipitation, MM = Missing Value Source: NWS Daily Summary

Daily Weather History Graph

Daily Weather History Graph

Search for Another Location

Airport or City:

Trip Planner

Search our weather history database for the weather conditions in past years. The results will help you decide how hot, cold, wet, or windy it might be!

Date:

Astronomy

May. 16, 2013 Rise Set
Actual Time 5:41 AM PDT 8:35 PM PDT
Civil Twilight 5:07 AM PDT 9:10 PM PDT
Nautical Twilight 4:23 AM PDT 9:54 PM PDT
Astronomical Twilight 3:32 AM PDT 10:45 PM PDT
Moon 11:25 AM PDT (5/16) 12:55 AM PDT (5/16)
Length of Visible Light 16h 02m
Length of Day
14h 53m
Waxing Crescent, 36% of the Moon is Illuminated
May 16
Waxing Crescent
May 17
First Quarter
May 24
Full
May 31
Last Quarter
Jun 8
New

Hourly Weather History & Observations

Time (PDT) Temp. Dew Point Humidity Pressure Visibility Wind Dir Wind Speed Gust Speed Precip Events Conditions
12:29 AM 55.4 °F 51.8 °F 88% 30.01 in 10.0 mi Calm Calm - N/A   Overcast
12:48 AM 55.4 °F 53.6 °F 94% 30.01 in 10.0 mi Calm Calm - 0.00 in Rain Light Rain
12:56 AM 55.9 °F 52.0 °F 87% 30.01 in 10.0 mi Calm Calm - 0.00 in Rain Light Rain
1:56 AM 55.0 °F 53.1 °F 93% 30.00 in 10.0 mi Calm Calm - 0.00 in   Overcast
2:56 AM 54.0 °F 53.1 °F 97% 29.98 in 10.0 mi Calm Calm - 0.00 in Rain Light Rain
3:56 AM 54.0 °F 52.0 °F 93% 29.97 in 10.0 mi Calm Calm - 0.00 in   Overcast
4:56 AM 54.0 °F 53.1 °F 97% 29.96 in 10.0 mi Calm Calm - N/A   Overcast
5:56 AM 54.0 °F 53.1 °F 97% 29.96 in 5.0 mi SSE 3.5 mph - 0.01 in Rain Light Rain
6:05 AM 53.6 °F 53.6 °F 100% 29.96 in 1.8 mi Calm Calm - 0.02 in Rain Light Rain
6:08 AM 53.6 °F 53.6 °F 100% 29.96 in 2.0 mi Calm Calm - 0.02 in Rain Light Rain
6:20 AM 53.6 °F 53.6 °F 100% 29.96 in 3.0 mi ESE 3.5 mph - 0.03 in Rain Light Rain
6:56 AM 54.0 °F 53.1 °F 97% 29.96 in 10.0 mi SE 3.5 mph - 0.03 in   Overcast
7:06 AM 53.6 °F 53.6 °F 100% 29.96 in 10.0 mi SE 3.5 mph - N/A   Overcast
7:23 AM 55.4 °F 53.6 °F 94% 29.96 in 5.0 mi Calm Calm - 0.01 in Rain Light Rain
7:56 AM 55.0 °F 54.0 °F 96% 29.96 in 6.0 mi Calm Calm - 0.01 in Rain Light Rain
8:41 AM 55.4 °F 53.6 °F 94% 29.96 in 2.0 mi Calm Calm - 0.02 in Rain Light Rain
8:54 AM 55.4 °F 53.6 °F 94% 29.96 in 3.0 mi SE 3.5 mph - 0.02 in   Overcast
8:56 AM 55.9 °F 54.0 °F 93% 29.96 in 3.0 mi Calm Calm - 0.02 in   Overcast
9:56 AM 57.0 °F 54.0 °F 89% 29.96 in 3.0 mi South 5.8 mph - 0.01 in   Overcast
10:56 AM 55.9 °F 54.0 °F 93% 29.96 in 10.0 mi SSE 4.6 mph - 0.04 in Rain Light Rain
11:03 AM 57.2 °F 53.6 °F 88% 29.96 in 9.0 mi South 3.5 mph - 0.00 in Rain Light Rain
11:56 AM 55.9 °F 53.1 °F 90% 29.97 in 10.0 mi WSW 8.1 mph - 0.02 in Rain Light Rain
12:56 PM 57.0 °F 53.1 °F 87% 29.97 in 5.0 mi South 6.9 mph - 0.02 in Rain Light Rain
1:56 PM 57.9 °F 54.0 °F 87% 29.96 in 10.0 mi SSE 6.9 mph - 0.01 in   Overcast
2:03 PM 57.2 °F 53.6 °F 88% 29.96 in 10.0 mi SSE 9.2 mph - N/A   Overcast
2:56 PM 59.0 °F 53.1 °F 81% 29.96 in 10.0 mi SSE 11.5 mph - N/A   Overcast
3:56 PM 60.1 °F 52.0 °F 75% 29.96 in 10.0 mi SSE 5.8 mph - N/A   Overcast
4:06 PM 60.8 °F 51.8 °F 72% 29.96 in 10.0 mi West 3.5 mph - N/A   Overcast
4:56 PM 57.0 °F 53.1 °F 87% 29.96 in 9.0 mi South 4.6 mph - 0.01 in Rain Light Rain
5:56 PM 60.1 °F 54.0 °F 80% 29.96 in 10.0 mi South 4.6 mph - 0.00 in   Overcast
6:56 PM 60.1 °F 46.9 °F 62% 29.96 in 10.0 mi SW 6.9 mph - N/A   Overcast
7:56 PM 55.9 °F 53.1 °F 90% 29.97 in 10.0 mi South 5.8 mph - 0.00 in   Overcast
8:56 PM 54.0 °F 53.1 °F 97% 29.98 in 10.0 mi SE 3.5 mph - 0.00 in Rain Light Rain
9:56 PM 53.1 °F 52.0 °F 96% 29.99 in 10.0 mi South 3.5 mph - 0.00 in   Mostly Cloudy
10:56 PM 54.0 °F 48.0 °F 80% 30.00 in 10.0 mi SSW 3.5 mph - 0.01 in Rain Light Rain
11:56 PM 52.0 °F 48.9 °F 89% 30.01 in 10.0 mi South 5.8 mph - 0.00 in   Overcast